Vorticity
6 6 6 7 8 10 13 17 16 19 9 3 3 7 13 14 8 8 13 12 6 6
8 7 6 7 7 6 8 10 11 11 16 20 13 10 5 5 17 14 13 17 11 6
17 18 19 16 8 7 5 6 8 10 11 14 15 17 21 17 6 3 0 10 17 14
18 17 18 20 22 22 20 14 7 8 9 6 5 3 4 14 12 17 10 12 5 10
10 11 12 10 10 15 17 14 17 22 13 15 12 12 -8 9 21 21 16 18 9 10
8 6 4 7 10 10 15 17 13 12 14 23 15 17 29 -9 11 22 21 14 14 16
9 9 9 12 11 8 6 12 30 14 7 4 1 7 51 9 -9 17 15 16 15 12
8 10 11 13 17 19 14 14 23 26 11 -1 17 8 18 18 -1 12 24 15 23 21
19 14 11 10 10 12 13 9 11 25 32 24 42 1 15 13 26 26 29 25 18 6
17 20 13 7 5 20 12 10 11 13 7 15 27 20 12 22 32 8 2 17 24 -9
17 20 17 20 10 11 26 14 11 2 45 -0 20 7 5 10 -3 2 12 11 13 23
18 18 11 8 15 6 10 10 26 25 29 32 9 22 17 23 24 19 16 27 25 19
18 24 27 28 27 31 29 33 26 23 29 31 22 16 12 9 9 4 3 3 2 5
7 6 6 6 6 4 5 5 4 1 3 4 6 7 7 7 6 5 5 5 4 5
Height
3069 3069 3069 3069 3069 3068 3068 3069 3067 3069 3071 3072 3072 3072 3071 3071 3071 3074 3076 3078 3078 3080
3060 3060 3060 3059 3059 3059 3059 3059 3059 3057 3059 3060 3060 3061 3061 3061 3061 3062 3064 3065 3066 3067
3051 3050 3050 3050 3050 3050 3050 3050 3049 3049 3049 3049 3050 3050 3050 3051 3051 3051 3053 3054 3055 3056
3043 3042 3041 3040 3040 3040 3040 3040 3040 3040 3040 3040 3040 3040 3040 3040 3041 3040 3041 3044 3046 3047
3036 3035 3034 3032 3031 3031 3030 3029 3029 3030 3030 3030 3030 3030 3028 3029 3031 3031 3032 3033 3036 3037
3030 3028 3026 3026 3026 3025 3023 3020 3020 3021 3021 3020 3020 3019 3017 3018 3021 3021 3022 3024 3026 3028
3023 3022 3021 3021 3020 3018 3016 3013 3010 3011 3011 3011 3012 3010 3006 3009 3011 3013 3013 3014 3016 3019
3017 3017 3016 3014 3011 3009 3008 3007 3004 3003 3004 3003 3003 3002 3001 3002 3004 3005 3005 3006 3007 3010
3012 3012 3010 3008 3005 3003 3002 3001 2999 2997 2997 2997 2996 2997 2996 2997 2997 2998 2998 2999 3000 3001
3007 3006 3004 3002 3000 2998 2997 2996 2995 2995 2993 2992 2991 2991 2990 2989 2987 2991 2993 2994 2994 2995
3002 3001 2999 2997 2997 2995 2994 2993 2992 2991 2987 2989 2988 2988 2988 2985 2986 2985 2987 2989 2990 2991
3000 2998 2997 2996 2995 2994 2993 2992 2990 2988 2987 2986 2986 2986 2986 2985 2985 2985 2986 2986 2986 2987
3002 2999 2997 2996 2996 2994 2994 2993 2991 2990 2988 2988 2988 2988 2987 2987 2986 2986 2987 2986 2985 2984
3005 3003 3001 3000 2999 2998 2997 2996 2994 2993 2992 2991 2990 2990 2989 2988 2987 2986 2984 2983 2981 2979